Regional Weather Roundup
Issued by NWS Grand Forks, ND

Home | Current Version | Previous Version | Text Only | Print | Product List | Glossary Off
Versions: 1 2 3 4 5 6 7 8 9 10 11 12 13 14 15 16 17 18 19 20 21 22 23 24 25 26 27 28 29 30 31 32 33 34 35 36 37 38 39 40 41 42 43 44 45 46 47 48 49 50

000
ASUS43 KFGF 191910
RWRFGF
PRAIRIE TO PINES  WEATHER ROUNDUP
NATIONAL WEATHER SERVICE EASTERN NORTH DAKOTA/GRAND FORKS ND
100 PM CST FRI DEC 19 2014

 **SATELLITE DATA USED TO AUGMENT SKY COVER AT AUTOMATED STATIONS**
 *****  WEATHER ACROSS EASTERN NORTH DAKOTA  *****

CITY           SKY/WX    TMP DP  RH WIND       PRES   REMARKS
GRAND FORKS    CLOUDY    27  26  96 S9        30.03F FOG     WCI  18
GRAND FRKS AFB NOT AVBL
GRAND FRKS NWS   N/A     27 N/A N/A S6          N/A  WCI  20
DEVILS LAKE    CLOUDY    27  19  74 S7        29.93F WCI  19
FARGO          CLOUDY    30  26  85 S13       30.04F FOG     WCI  20
WAHPETON ARPT  CLOUDY    30  28  93 S9        30.05F WCI  22
$$

 ***** WEATHER ACROSS CENTRAL AND WESTERN NORTH DAKOTA  *****

CITY           SKY/WX    TMP DP  RH WIND       PRES   REMARKS
BISMARCK       MOSUNNY   30  25  81 CALM      29.93F
MINOT          CLOUDY    27  25  92 VRB6      29.92F FOG     WCI  20
JAMESTOWN      CLOUDY    29  26  89 S9        29.95F WCI  20
MINOT AFB      CLOUDY    27  27 100 N1        29.92F
GARRISON         N/A     26  25  96 NW3       29.91F
WILLISTON      CLOUDY    24  22  91 SW3       29.92S FOG
DICKINSON      MOSUNNY   42  29  59 SW8       29.88F
HETTINGER      MOSUNNY   38  26  62 W9        29.92F
$$

 *****  OTHER AIRPORT OBSERVATIONS IN OUR AREA  *****

CITY           SKY/WX    TMP DP  RH WIND       PRES   REMARKS
WALHALLA         N/A     27  27 100 S9        30.00F FOG     WCI  17
GRAFTON AIRPOR NOT AVBL
VALLEY CITY AR MIX PCPN  28  28 100 S14       29.97F WCI  17
CANDO          CLOUDY    27  27 100 S3        29.95F FOG
CAVALIER APRT  FOG       27  25  93 S8        30.02F VSB 1   WCI  18
GWINNER        CLOUDY    32  32 100 MISG      30.01F
SHEYENNE NWR     N/A     30  27  87 S10       29.95S WCI  21
ROLLA          CLOUDY    27  27 100 CALM      29.93F FOG
 ***** THE ABOVE OBSERVATIONS ARE NON NWS ARE NOT QUALITY
       CONTROLLED AND MAY MIS-REPORT RAIN FOR SNOW...
$$

  *****  WEATHER ACROSS NORTHERN MINNESOTA  *****

CITY           SKY/WX    TMP DP  RH WIND       PRES   REMARKS
FLAG ISLAND    CLOUDY    21  19  93 S18       30.08F WCI   6
WARROAD        CLOUDY    23  19  86 S8        30.08S FOG     WCI  14
ROSEAU         CLOUDY    25  19  80 S13       30.06F HAZE    WCI  13
HALLOCK        CLOUDY    27  27 100 S12       30.03F FOG     WCI  16
THF RVR FALLS  CLOUDY    25  25 100 SE10      30.05F WCI  15
BAUDETTE       CLOUDY    24  18  77 S6        30.09F WCI  17
WASKISH        CLOUDY    25  21  86 CALM      30.09F
CROOKSTON      CLOUDY    27  27 100 S14       30.05F FOG     WCI  15
STEPHEN NDAWN    N/A     27  27 100 S12         N/A  WCI  16
GREENBUSH NDAW   N/A     25  25 100 SE10        N/A  WCI  15
$$
  *****  WEATHER ACROSS CENTRAL AND WEST MINNESOTA  *****

CITY           SKY/WX    TMP DP  RH WIND       PRES   REMARKS
FOSSTON        CLOUDY    23  21  93 SE9       30.06F FOG     WCI  13
BEMIDJI        CLOUDY    22  21  96 SE8       30.07F FOG     WCI  12
PARK RAPIDS    FOG       24  22  91 SE10      30.08F VSB 1   WCI  14
ELBOW LAKE     CLOUDY    28  27  96 S14       30.06F FOG     WCI  17
WADENA         FOG       23  21  93 NW6       30.08F VSB 1   WCI  16
DETROIT LAKES  CLOUDY    27  27 100 SE9       30.06S FOG     WCI  17
MOORHEAD       CLOUDY    30  30 100 S14       30.05F FOG     WCI  20
FERGUS FALLS   CLOUDY    28  27  93 S14G21    30.09F FOG     WCI  17
MORRIS MN      MOSUNNY   30  28  93 S17       30.06F FOG     WCI  18
STAPLES        CLOUDY    21  21 100 SE5       30.11F FOG     WCI  15
$$
  *****  WEATHER ELSEWHERE ACROSS MINNESOTA  *****

CITY           SKY/WX    TMP DP  RH WIND       PRES   REMARKS
DULUTH         LGT SNOW  23  18  81 S6        30.16F WCI  16
INTRNTL FALLS  LGT SNOW  24  19  81 S7        30.12F WCI  16
ELY            CLOUDY    21  18  86 S6        30.16F WCI  14
CLOQUET        CLOUDY    25  19  80 S5        30.17F WCI  19
WHEATON        CLOUDY    28  27  93 SE12      30.07F WCI  18
BRAINERD       CLOUDY    22  21  96 S7        30.14F FOG     WCI  13
HIBBING        CLOUDY    24  18  77 SE9       30.15F WCI  14
ALEXANDRIA     CLOUDY    28  26  92 S12       30.09F FOG     WCI  18
SAINT CLOUD    CLOUDY    26  22  84 SE10      30.16F FOG     WCI  16
MINNEAPOLIS    CLOUDY    27  22  81 SE7       30.22F WCI  19
$$

  *****  WEATHER ACROSS SOUTH DAKOTA  *****

CITY           SKY/WX    TMP DP  RH WIND       PRES   REMARKS
SIOUX FALLS    CLOUDY    30  27  88 S16       30.11F WCI  19
BROOKINGS      NOT AVBL
WATERTOWN      CLOUDY    27  26  96 S13       30.03F FOG     WCI  16
HURON          CLOUDY    29  27  92 MISG      30.05F FOG
SISSETON         N/A     31  28  89 S13       30.03  WCI  21
ABERDEEN       CLOUDY    31  27  85 S17       30.01F FOG     WCI  19
MITCHELL       CLOUDY    31  28  89 S16       30.07F FOG     WCI  20
PIERRE         CLOUDY    26  23  88 CALM      29.97F
MOBRIDGE       MOSUNNY   32  27  81 S7        29.93F
RAPID CITY     MOSUNNY   50  20  30 CALM      29.94F
$$

  *****  SOME WEATHER IN NEARBY STATES *****

CITY           SKY/WX    TMP DP  RH WIND       PRES   REMARKS
GLASGOW MT     SUNNY     33  26  75 CALM      29.89F
GREAT FALLS MT CLOUDY    42  28  57 SW14      29.81F
CHEYENNE WY    SUNNY     38  13  35 W24G31    30.02F
SCOTTSBLUFF NE SUNNY     30  23  75 W6        30.01F WCI  24
OMAHA NE       CLOUDY    33  29  85 S13       30.20F FOG     WCI  24
DES MOINES IA  CLOUDY    33  27  78 S8        30.23F
DAVENPORT IA   SUNNY     30  19  63 NE3       30.27F
CHICAGO IL     CLOUDY    30  21  69 N6        30.27F WCI  24
EAU CLAIRE WI  CLOUDY    27  19  72 S8        30.25S WCI  19
LA CROSSE WI   CLOUDY    30  20  66 S7        30.27F WCI  23
$$

  *****  SOME NATIONAL WEATHER *****

CITY           SKY/WX    TMP DP  RH WIND       PRES   REMARKS
LA GUARDIA NY  MOSUNNY   37  21  52 NW13G24   30.04R
RALEIGH NC     PTSUNNY   52  24  33 VRB6      30.12F
ATLANTA GA     CLOUDY    53  34  48 CALM      30.11F
NEW ORLEANS LA LGT RAIN  54  51  90 E8        30.07F FOG
OKLAHOMA CITY  CLOUDY    42  37  82 N5        30.20F HAZE
ALBUQUERQUE NM MOSUNNY   42  25  50 NW13      30.21F
SALT LAKE CITY MOSUNNY   42  28  57 S13       30.17F
LOS ANGELES CA MOSUNNY   62  46  55 CALM      30.22F
BOISE ID       LGT RAIN  42  37  82 SE12      30.06F
SEATTLE WA     MOSUNNY   50  41  71 S13       29.94R
$$

*** WEATHER ACROSS MANITOBA...SASKATCHEWAN AND ONTARIO ***
                ***ONTARIO***

CITY           SKY/WX    TMP DP  RH WIND       PRES   REMARKS
GERALDTON      NOT AVBL
THUNDER BAY    CLOUDY    16  12  86 SW5       30.26F WCI   9
SIOUX LOOKOUT  NOT AVBL
TORONTO        PTSUNNY   30  19  64 N13G20    30.18R WCI  20
BIG TROUT LK   FLURRIES  10   9  92 SW5       30.14S WCI   2
PICKLE LAKE    NOT AVBL
DRYDEN         FLURRIES  23  19  86 S12       30.11F WCI  12
KENORA         NOT AVBL
$$
                *** MANITOBA***

CITY           SKY/WX    TMP DP  RH WIND       PRES   REMARKS
BRANDON        CLOUDY    23  21  93 E2        29.96F FOG
DAUPHIN        CLOUDY    23  19  86 SW3       29.98F
ISLAND LAKE    FLURRIES  10   9  92 SE7       30.07F WCI   0
PILOT MOUND      N/A     27  25  93 SE1         N/A
THE PAS        FRZ DRZL  18  18 100 S5        29.98S FOG     WCI  11
THOMPSON       NOT AVBL
WINNIPEG       NOT AVBL
LYNN LAKE      CLOUDY    16  16 100 W3        29.91F
GILLAM         FLURRIES  12   9  85 SW9       30.00S WCI   0
$$
                ***SASKATCHEWAN***

CITY           SKY/WX    TMP DP  RH WIND       PRES   REMARKS
ESTEVAN        FOG       23  21  93 SW5       29.91F VSB 1/4 WCI  17
KINDERSLEY     NOT AVBL
LLOYDMINSTER   NOT AVBL
PRINCE ALBERT  NOT AVBL
REGINA         LGT SNOW  16  16 100 CALM      29.92S VSB 1
YORKTON        CLOUDY    23  21  93 SW5       29.91F WCI  17
N. BATTLEFORD  FOG       14  12  92 SE9       29.89F VSB 3/8 WCI   2
LA RONGE       NOT AVBL
SASKATOON      FOG       14  12  92 S6        29.94F VSB 1/2 WCI   5
SWIFT CURRENT  SUNNY     32  30  93 S9        29.81F WCI  24
$$
NOTE: THESE ARE AUTOMATED STATIONS WITH LIMITED QUALITY CONTROL
      "FAIR" INDICATES FEW OR NO CLOUDS BELOW 12,000 FEET WITH NO
      SIGNIFICANT WEATHER AND/OR OBSTRUCTIONS TO VISIBILITY.
      SKY/WX - SKY CONDITION AND SIGNIFICANT WEATHER.
      TMP - AIR TEMPERATURE.    DP   - DEWPOINT TEMPERATURE.
      RH  - RELATIVE HUMIDITY.  PRES - PRESSURE.
      HX  - HEAT INDEX.         WCI  - WIND CHILL INDEX.
$


USA.gov is the U.S. government's official web portal to all federal, state and local government web resources and services.